Phillips, WI

4:08 AM CDT on October 18, 2017 (GMT -0500)
Price County

Weather History for KPBH - February, 2014

Change the Weather History Date:

Sunday, February 2, 2014

  Actual Average Record
Temperature  
Mean Temperature -6 °F -  
Max Temperature 9 °F 25 °F 39 °F (2005)
Min Temperature -20 °F 7 °F -20 °F (2014)
Degree Days  
Heating Degree Days 70    
Moisture  
Dew Point -11 °F    
Average Humidity 73    
Maximum Humidity 86    
Minimum Humidity 50    
Precipitation  
Precipitation 0.00 in - - ()
Sea Level Pressure  
Sea Level Pressure 30.13 in    
Wind  
Wind Speed 2 mph (WSW)    
Max Wind Speed 9 mph    
Max Gust Speed -    
Visibility 10 miles    
Events Snow    
Averages and records for this station are not official NWS values.
T = Trace of Precipitation, MM = Missing Value Source: NWS Daily Summary

Daily Weather History Graph

Daily Weather History Graph

Search for Another Location

Airport or City:

Trip Planner

Search our weather history database for the weather conditions in past years. The results will help you decide how hot, cold, wet, or windy it might be!

Date:

Astronomy

Feb. 02, 2014 Rise Set
Actual Time 7:21 AM CST 5:09 PM CST
Civil Twilight 6:50 AM CST 5:40 PM CST
Nautical Twilight 6:14 AM CST 6:16 PM CST
Astronomical Twilight 5:39 AM CST 6:51 PM CST
Moon 8:36 AM CST (2/2) 9:07 PM CST (2/2)
Length of Visible Light 10h 50m
Length of Day
9h 47m
Waxing Crescent, 11% of the Moon is Illuminated
Feb 2
Waxing Crescent
Feb 6
First Quarter
Feb 14
Full
Feb 22
Last Quarter
Mar 1
New

Hourly Weather History & Observations

Time (CST) Temp. Windchill Dew Point Humidity Pressure Visibility Wind Dir Wind Speed Gust Speed Precip Events Conditions
12:15 AM 0.7 °F - -2.9 °F 85% 30.05 in 10.0 mi Calm Calm - N/A   Overcast
12:35 AM 0.7 °F - -3.1 °F 84% 30.05 in 10.0 mi Calm Calm - N/A   Mostly Cloudy
12:55 AM -0.4 °F -8.3 °F -4.2 °F 84% 30.05 in 10.0 mi WNW 3.5 mph - N/A   Clear
1:15 AM -0.4 °F -8.3 °F -4.0 °F 85% 30.05 in 10.0 mi NW 3.5 mph - N/A   Clear
1:35 AM -0.9 °F -8.9 °F -4.4 °F 85% 30.06 in 10.0 mi NW 3.5 mph - N/A   Mostly Cloudy
1:55 AM -1.8 °F -9.9 °F -5.3 °F 85% 30.06 in 10.0 mi WNW 3.5 mph - N/A   Scattered Clouds
2:15 AM -1.3 °F -11.4 °F -5.1 °F 84% 30.06 in 10.0 mi NW 4.6 mph - N/A   Clear
2:35 AM -1.7 °F -9.7 °F -5.6 °F 83% 30.07 in 10.0 mi NW 3.5 mph - N/A   Clear
2:55 AM -2.4 °F -10.6 °F -6.2 °F 84% 30.07 in 10.0 mi NW 3.5 mph - N/A   Clear
3:15 AM -3.5 °F - -7.4 °F 83% 30.07 in 10.0 mi Calm Calm - N/A   Clear
3:35 AM -4.4 °F - -8.1 °F 84% 30.08 in 10.0 mi Calm Calm - N/A   Clear
3:55 AM -5.4 °F - -9.6 °F 82% 30.07 in 10.0 mi Calm Calm - N/A   Clear
4:15 AM -5.1 °F -15.8 °F -9.2 °F 82% 30.08 in 10.0 mi WNW 4.6 mph - N/A   Clear
4:35 AM -5.8 °F - -9.9 °F 82% 30.09 in 10.0 mi Calm Calm - N/A   Clear
4:55 AM -7.6 °F - -11.6 °F 83% 30.09 in 10.0 mi Calm Calm - N/A   Clear
5:15 AM -9.9 °F - -14.3 °F 81% 30.09 in 10.0 mi Calm Calm - N/A   Clear
5:35 AM -12.3 °F - -16.1 °F 83% 30.09 in 5.0 mi Calm Calm - N/A   Clear
5:55 AM -13.0 °F - -17.3 °F 81% 30.10 in 2.5 mi Calm Calm - N/A Snow Light Snow
6:15 AM -17.0 °F - -21.6 °F 79% 30.11 in 5.0 mi Calm Calm - N/A   Haze
6:35 AM -17.0 °F - -21.8 °F 79% 30.11 in 2.5 mi Calm Calm - N/A Snow Light Snow
6:55 AM -17.9 °F - -22.0 °F 81% 30.12 in 3.0 mi Calm Calm - N/A Snow Light Snow
7:15 AM -19.3 °F - -24.3 °F 78% 30.12 in 10.0 mi Calm Calm - N/A   Clear
7:35 AM -20.4 °F - -25.4 °F 78% 30.13 in 10.0 mi Calm Calm - N/A   Clear
7:55 AM -19.8 °F - -24.9 °F 78% 30.14 in 5.0 mi Calm Calm - N/A   Haze
8:15 AM -20.0 °F - -25.1 °F 78% 30.15 in 10.0 mi Calm Calm - N/A   Clear
8:35 AM -17.9 °F - -22.5 °F 79% 30.16 in 10.0 mi Calm Calm - N/A   Clear
8:55 AM -14.8 °F - -19.3 °F 80% 30.16 in 10.0 mi Calm Calm - N/A   Clear
9:15 AM -9.4 °F -18.6 °F -13.5 °F 82% 30.16 in 10.0 mi WSW 3.5 mph - N/A   Clear
9:35 AM -6.5 °F -15.3 °F -10.7 °F 82% 30.16 in 10.0 mi SW 3.5 mph - N/A   Clear
9:55 AM -4.9 °F -13.4 °F -8.7 °F 84% 30.16 in 10.0 mi SSW 3.5 mph - N/A   Clear
10:15 AM -3.3 °F - -7.2 °F 83% 30.17 in 10.0 mi Calm Calm - N/A   Clear
10:35 AM -1.3 °F - -5.3 °F 83% 30.17 in 10.0 mi Calm Calm - N/A   Clear
10:55 AM -0.0 °F -9.9 °F -4.4 °F 82% 30.17 in 10.0 mi SSW 4.6 mph - N/A   Clear
11:15 AM 1.6 °F -8.0 °F -3.6 °F 79% 30.17 in 10.0 mi SW 4.6 mph - N/A   Clear
11:35 AM 2.5 °F -7.0 °F -4.4 °F 73% 30.16 in 10.0 mi SSW 4.6 mph - N/A   Clear
11:55 AM 3.6 °F -7.3 °F -5.1 °F 67% 30.16 in 10.0 mi SW 5.8 mph - N/A   Clear
12:15 PM 5.5 °F -3.4 °F -5.4 °F 61% 30.16 in 10.0 mi SW 4.6 mph - N/A   Clear
12:35 PM 5.7 °F -4.8 °F -5.3 °F 61% 30.14 in 10.0 mi SW 5.8 mph - N/A   Clear
12:55 PM 6.3 °F -5.4 °F -5.8 °F 58% 30.14 in 10.0 mi SW 6.9 mph - N/A   Clear
1:15 PM 7.7 °F -2.4 °F -5.6 °F 55% 30.14 in 10.0 mi West 5.8 mph - N/A   Clear
1:35 PM 7.7 °F -3.7 °F -6.2 °F 53% 30.12 in 10.0 mi WSW 6.9 mph - N/A   Clear
1:55 PM 8.6 °F -1.3 °F -5.8 °F 52% 30.12 in 10.0 mi WSW 5.8 mph - N/A   Clear
2:15 PM 8.8 °F -1.1 °F -6.0 °F 51% 30.13 in 10.0 mi West 5.8 mph - N/A   Clear
2:35 PM 8.6 °F -3.7 °F -6.0 °F 52% 30.13 in 10.0 mi WSW 8.1 mph - N/A   Clear
2:55 PM 9.1 °F -3.0 °F -6.0 °F 50% 30.13 in 10.0 mi WSW 8.1 mph - N/A   Clear
3:15 PM 8.6 °F -2.6 °F -6.7 °F 50% 30.13 in 10.0 mi WSW 6.9 mph - N/A   Clear
3:35 PM 8.4 °F -1.6 °F -6.3 °F 51% 30.14 in 10.0 mi SW 5.8 mph - N/A   Clear
3:55 PM 8.6 °F -2.6 °F -6.5 °F 50% 30.14 in 10.0 mi SW 6.9 mph - N/A   Clear
4:15 PM 8.2 °F -4.1 °F -6.3 °F 52% 30.14 in 10.0 mi SW 8.1 mph - N/A   Clear
4:35 PM 7.3 °F -6.2 °F -6.3 °F 54% 30.16 in 10.0 mi SW 9.2 mph - N/A   Clear
4:55 PM 6.4 °F -5.2 °F -6.5 °F 55% 30.16 in 10.0 mi SW 6.9 mph - N/A   Clear
5:15 PM 5.2 °F -5.4 °F -6.7 °F 58% 30.16 in 10.0 mi SW 5.8 mph - N/A   Clear
5:35 PM 4.6 °F -7.4 °F -6.7 °F 59% 30.16 in 10.0 mi SW 6.9 mph - N/A   Clear
5:55 PM 3.0 °F -8.0 °F -7.4 °F 62% 30.16 in 10.0 mi SW 5.8 mph - N/A   Clear
6:15 PM 2.7 °F -9.7 °F -7.6 °F 62% 30.16 in 10.0 mi SW 6.9 mph - N/A   Clear
6:35 PM 2.1 °F -9.0 °F -8.0 °F 63% 30.16 in 10.0 mi WSW 5.8 mph - N/A   Clear
6:55 PM 1.4 °F -8.3 °F -8.1 °F 64% 30.16 in 10.0 mi WSW 4.6 mph - N/A   Clear
7:15 PM 0.7 °F -9.1 °F -8.3 °F 66% 30.15 in 10.0 mi WSW 4.6 mph - N/A   Clear
7:35 PM -0.6 °F -10.6 °F -8.9 °F 68% 30.15 in 10.0 mi SW 4.6 mph - N/A   Clear
7:55 PM -2.7 °F -11.0 °F -9.9 °F 71% 30.14 in 10.0 mi SW 3.5 mph - N/A   Clear
8:15 PM -6.0 °F - -11.9 °F 75% 30.14 in 10.0 mi Calm Calm - N/A   Clear
8:35 PM -8.3 °F - -13.4 °F 79% 30.14 in 10.0 mi Calm Calm - N/A   Clear
8:55 PM -10.1 °F - -14.1 °F 83% 30.14 in 10.0 mi Calm Calm - N/A   Clear
9:15 PM -11.0 °F - -14.6 °F 84% 30.14 in 10.0 mi Calm Calm - N/A   Clear
9:35 PM -12.1 °F - -15.3 °F 85% 30.13 in 10.0 mi Calm Calm - N/A   Clear
9:55 PM -13.2 °F - -16.2 °F 86% 30.13 in 10.0 mi Calm Calm - N/A   Clear
10:15 PM -16.4 °F - -20.4 °F 82% 30.14 in 10.0 mi Calm Calm - N/A   Clear
10:35 PM -16.1 °F - -19.8 °F 83% 30.14 in 10.0 mi Calm Calm - N/A   Clear
10:55 PM -15.9 °F - -19.8 °F 82% 30.14 in 10.0 mi Calm Calm - N/A   Clear
11:15 PM -18.8 °F - -22.5 °F 83% 30.14 in 10.0 mi Calm Calm - N/A   Clear
11:35 PM -16.8 °F - -20.4 °F 84% 30.15 in 10.0 mi Calm Calm - N/A   Clear
11:55 PM -17.3 °F - -21.5 °F 81% 30.15 in 10.0 mi Calm Calm - N/A   Clear